This is the latest recevied weather packets stored in our database for station/object HB9BB-10. If no packets are shown the sender has not sent any weather packets the latest 10 day(s).
| Time | Temp. | Humidity | Pressure | Rain* | Wind** | Luminosity | Snow |
|---|---|---|---|---|---|---|---|
| 1788559004 | 28.33° C | 26% | 1037.9 hPa | - | - | - | - |
| 1788557623 | 28.33° C | 26% | 1037.9 hPa | - | - | - | - |
| 1788556243 | 28.33° C | 26% | 1037.8 hPa | - | - | - | - |
| 1788554863 | 28.89° C | 26% | 1038 hPa | - | - | - | - |
| 1788553483 | 28.89° C | 26% | 1037.7 hPa | - | - | - | - |
| 1788552103 | 28.89° C | 26% | 1037.6 hPa | - | - | - | - |
| 1788550723 | 29.44° C | 26% | 1037.7 hPa | - | - | - | - |
| 1788549342 | 30° C | 26% | 1037.5 hPa | - | - | - | - |
| 1788547962 | 30° C | 26% | 1037.4 hPa | - | - | - | - |
| 1788546582 | 30.56° C | 27% | 1037.1 hPa | - | - | - | - |
| 1788545202 | 30.56° C | 26% | 1036.7 hPa | - | - | - | - |
| 1788543822 | 31.11° C | 27% | 1036.7 hPa | - | - | - | - |
| 1788542441 | 31.11° C | 26% | 1036.6 hPa | - | - | - | - |
| 1788541061 | 31.67° C | 27% | 1036.6 hPa | - | - | - | - |
| 1788539681 | 31.67° C | 27% | 1036.7 hPa | - | - | - | - |
| 1788538301 | 31.67° C | 27% | 1036.7 hPa | - | - | - | - |
| 1788536921 | 31.67° C | 27% | 1036.8 hPa | - | - | - | - |
| 1788535540 | 31.11° C | 27% | 1036.9 hPa | - | - | - | - |
| 1788534160 | 31.11° C | 27% | 1037 hPa | - | - | - | - |
| 1788532780 | 31.11° C | 27% | 1037.1 hPa | - | - | - | - |
| 1788531400 | 31.11° C | 27% | 1037.3 hPa | - | - | - | - |
| 1788530020 | 31.11° C | 27% | 1037.3 hPa | - | - | - | - |
| 1788528640 | 31.11° C | 27% | 1037.4 hPa | - | - | - | - |
| 1788527259 | 30.56° C | 27% | 1037.5 hPa | - | - | - | - |
| 1788525879 | 30.56° C | 28% | 1037.7 hPa | - | - | - | - |
* Rain since midnight (hover to see other rain measurements)
** Current wind speed in m/s (hover to see current wind gust speed)